Minot, ND

6:00 AM CDT on September 26, 2017 (GMT -0500)
Minot International

Weather History for KMOT - August, 2013

Change the Weather History Date:

Saturday, August 17, 2013

  Actual Average Record
Temperature  
Mean Temperature 77 °F 69 °F  
Max Temperature 88 °F 82 °F 104 °F (2003)
Min Temperature 65 °F 56 °F 37 °F (1950)
Cooling Degree Days 12 5  
Month to date cooling degree days 34 98  
Year to date cooling degree days 231 356  
Since 1 June cooling degree days 221 340  
Growing Degree Days 26 (Base 50)    
Moisture  
Dew Point 61 °F    
Average Humidity 61    
Maximum Humidity 79    
Minimum Humidity 43    
Precipitation  
Precipitation 0.00 in 0.07 in 0.99 in (2005)
Month to date precipitation 1.34 1.14  
Year to date precipitation 18.75 12.54  
Sea Level Pressure  
Sea Level Pressure 29.85 in    
Wind  
Wind Speed 10 mph (SSE)    
Max Wind Speed 23 mph    
Max Gust Speed 31 mph    
Visibility 10 miles    
Events      
T = Trace of Precipitation, MM = Missing Value Source: NWS Daily Summary

Daily Weather History Graph

Daily Weather History Graph

Search for Another Location

Airport or City:

Trip Planner

Search our weather history database for the weather conditions in past years. The results will help you decide how hot, cold, wet, or windy it might be!

Date:

Astronomy

Aug. 17, 2013 Rise Set
Actual Time 6:42 AM CDT 8:54 PM CDT
Civil Twilight 6:08 AM CDT 9:28 PM CDT
Nautical Twilight 5:25 AM CDT 10:11 PM CDT
Astronomical Twilight 4:37 AM CDT 10:58 PM CDT
Moon 6:19 PM CDT (8/17) 2:38 AM CDT (8/17)
Length of Visible Light 15h 20m
Length of Day
14h 12m
Waxing Gibbous, 84% of the Moon is Illuminated
Aug 17
Waxing Gibbous
Aug 20
Full
Aug 28
Last Quarter
Sep 5
New
Sep 12
First Quarter

Hourly Weather History & Observations

Time (CDT) Temp. Heat Index Dew Point Humidity Pressure Visibility Wind Dir Wind Speed Gust Speed Precip Events Conditions
12:54 AM 69.1 °F - 55.9 °F 63% 29.91 in 10.0 mi SSE 5.8 mph - N/A   Clear
1:54 AM 69.1 °F - 55.9 °F 63% 29.90 in 10.0 mi South 10.4 mph - N/A   Clear
2:54 AM 68.0 °F - 55.9 °F 65% 29.89 in 10.0 mi South 11.5 mph - N/A   Clear
3:54 AM 66.9 °F - 57.0 °F 70% 29.89 in 10.0 mi SSW 10.4 mph - N/A   Clear
4:54 AM 66.0 °F - 57.0 °F 73% 29.88 in 10.0 mi South 12.7 mph - N/A   Clear
5:54 AM 64.9 °F - 57.9 °F 78% 29.87 in 10.0 mi South 11.5 mph - N/A   Clear
6:54 AM 64.9 °F - 57.9 °F 78% 29.87 in 10.0 mi South 9.2 mph - N/A   Clear
7:54 AM 66.9 °F - 59.0 °F 76% 29.87 in 10.0 mi South 11.5 mph 16.1 mph N/A   Clear
8:54 AM 69.1 °F - 60.1 °F 73% 29.87 in 10.0 mi SSW 6.9 mph - N/A   Clear
9:54 AM 73.0 °F - 61.0 °F 66% 29.87 in 10.0 mi South 10.4 mph - N/A   Clear
10:54 AM 77.0 °F - 63.0 °F 62% 29.87 in 10.0 mi South 9.2 mph - N/A   Clear
11:54 AM 81.0 °F 82.2 °F 63.0 °F 54% 29.87 in 10.0 mi South 10.4 mph - N/A   Clear
12:54 PM 84.0 °F 84.5 °F 62.1 °F 47% 29.86 in 10.0 mi South 10.4 mph - N/A   Clear
1:54 PM 86.0 °F 86.3 °F 62.1 °F 44% 29.85 in 10.0 mi South 8.1 mph - N/A   Clear
2:54 PM 88.0 °F 89.3 °F 64.0 °F 45% 29.83 in 10.0 mi South 10.4 mph - N/A   Clear
3:54 PM 87.1 °F 87.8 °F 63.0 °F 44% 29.83 in 10.0 mi SSE 9.2 mph - N/A   Clear
4:54 PM 86.0 °F 88.2 °F 66.0 °F 51% 29.82 in 10.0 mi SSE 9.2 mph - N/A   Clear
5:54 PM 86.0 °F 87.6 °F 64.9 °F 49% 29.82 in 10.0 mi South 9.2 mph - N/A   Clear
6:54 PM 84.9 °F 86.6 °F 64.9 °F 51% 29.81 in 10.0 mi SSE 9.2 mph - N/A   Clear
7:54 PM 81.0 °F 82.7 °F 64.9 °F 58% 29.81 in 10.0 mi SE 9.2 mph - N/A   Clear
8:54 PM 77.0 °F - 64.9 °F 66% 29.81 in 10.0 mi ESE 5.8 mph - N/A   Clear
9:54 PM 72.0 °F - 64.9 °F 78% 29.81 in 10.0 mi East 5.8 mph - N/A   Clear
10:54 PM 72.0 °F - 64.0 °F 76% 29.79 in 10.0 mi ESE 4.6 mph - N/A   Clear
11:54 PM 77.0 °F - 63.0 °F 62% 29.78 in 10.0 mi SSE 12.7 mph 20.7 mph N/A   Clear